Flag for Germany Weather past 2 weeks in Backnang, Baden-Württemberg, Germany

Now
49 °F

Passing clouds.


Feels Like: 49 °F
Forecast: 44 / 71 °F
Wind: 2 mph from Southeast

Location: Oehringen

Current Time: May 31, 2015 at 1:30:31 AM

Latest Report: May 31, 2015 at 1:00 AM


Visibility: 19 mi

Pressure: 30.09 "Hg

Humidity: 86%

Dew point: 45 °F

Location of BacknangLocation

Historic Weather in Backnang — Graph

°F

Backnang temperature yesterday

Maximum temperature yesterday: 63 °F (at 6:00 PM)
Minimum temperature yesterday: 50 °F (at 8:00 AM)
Average temperature yesterday: 56 °F

Past Weeks' High & Low Weather Summary

 TemperatureHumidityPressure
High73 °F (May 18, 5:00 PM)99% (May 26, 2:00 AM)30.37 "Hg (May 26, 2:00 AM)
Low38 °F (May 22, 6:00 AM)31% (May 22, 4:00 PM)29.71 "Hg (May 18, 9:00 PM)
Average56 °F67%30.07 "Hg
* Reported Midnight between May 15 and May 16 — Midnight between May 30 and May 31, Backnang, Weather by CustomWeather, © 2015

Note: Actual official high and low records may vary slightly from our data, if they occured in-between our weather recording intervals... More about our weather records

Advertising

Backnang weather history for previous 24 hours

 ConditionsComfort  
Time TempWeatherWind HumidityBarometerVisibility
12:00 AM
Sun, May 31
52 °FPassing clouds.2 mph82%30.08 "Hg22 mi
11:00 PM
Sat, May 30
53 °FOvercast.2 mph79%30.07 "Hg22 mi
10:00 PM56 °FOvercast.1 mph64%30.06 "Hg37 mi
9:00 PM58 °FPartly sunny.2 mph62%30.05 "Hg40 mi
8:00 PM61 °FPassing clouds.5 mph52%30.03 "Hg43 mi
7:00 PM61 °FOvercast.5 mph51%30.02 "Hg43 mi
6:00 PM63 °FPartly sunny.7 mph52%30.01 "Hg40 mi
5:00 PM62 °FScattered clouds.8 mph57%30.01 "Hg40 mi
4:00 PM61 °FPartly sunny.8 mph58%30.01 "Hg40 mi
3:00 PM60 °FOvercast.7 mph65%30.01 "Hg31 mi
2:00 PM56 °FOvercast.7 mph70%30.01 "Hg31 mi
1:00 PM56 °FOvercast.6 mph73%30.01 "Hg31 mi
12:00 PM53 °FOvercast.6 mph82%30.01 "Hg25 mi
11:00 AM53 °FDrizzle. Low clouds.3 mph94%29.99 "Hg11 mi
10:00 AM51 °FLight freezing rain. Overcast.5 mph93%29.99 "Hg9 mi
9:00 AM51 °FLight freezing rain. Overcast.3 mph95%29.97 "Hg3 mi
8:00 AM50 °FLight rain. Overcast.5 mph94%29.96 "Hg4 mi
7:00 AM53 °FDrizzle. Overcast.5 mph92%29.92 "Hg8 mi
6:00 AM53 °FLight rain. Overcast.3 mph91%29.91 "Hg4 mi
5:00 AM54 °FDrizzle. Overcast.3 mph85%29.90 "Hg11 mi
4:00 AM55 °FOvercast.2 mph82%29.89 "Hg16 mi
3:00 AM56 °FOvercast.2 mph77%29.89 "Hg19 mi
2:00 AM55 °FOvercast.3 mph82%29.89 "Hg17 mi
1:00 AM56 °FOvercast.3 mph86%29.89 "Hg12 mi
Weather by CustomWeather, © 2015

See weather overviewHow to use our weather pages